KF5CFW Weather Reports


time (UTC)temp
F
wind
direction
speed
knots
gust
knots
rain 1hr
in
rain 24hr
in
rain mn
in
humidity
%
barometer
mb
20260906143022 87 148 0.0 0.0 0.00 0.00 0.00 53 1012.6
20260906141518 85 148 0.0 0.0 0.00 0.00 0.00 48 1012.7
20260906140015 84 148 0.0 0.0 0.00 0.00 0.00 38 1012.5
20260906134512 83 148 0.0 0.0 0.00 0.00 0.00 28 1012.6
20260906133008 81 148 0.0 0.0 0.00 0.00 0.00 9 1012.5
20260906131511 80 148 0.0 0.0 0.00 0.00 0.00 1 1012.5
20260906130002 79 148 0.0 0.0 0.00 0.00 0.00 1 1012.5
20260906124557 79 148 0.0 0.0 0.00 0.00 0.00 1 1012.3
20260906123054 78 148 0.0 0.0 0.00 0.00 0.00 1 1012.3
20260906121550 78 148 0.0 0.0 0.00 0.00 0.00 1 1012.2
20260906120054 78 148 0.0 0.0 0.00 0.00 0.00 1 1011.9
20260906114539 78 148 0.0 0.0 0.00 0.00 0.00 1 1011.8
20260906113035 78 148 0.0 0.0 0.00 0.00 0.00 1 1011.7
20260906111530 78 148 0.0 0.0 0.00 0.00 0.00 3 1011.5
20260906110029 78 148 0.0 0.0 0.00 0.00 0.00 5 1011.4
20260906104627 79 148 0.0 0.0 0.00 0.00 0.00 6 1011.4
20260906103025 79 148 0.0 0.0 0.00 0.00 0.00 9 1011.4
20260906101524 79 148 0.0 0.0 0.00 0.00 0.00 12 1011.3
20260906100022 79 148 0.0 0.0 0.00 0.00 0.00 15 1011.0
20260906094519 80 148 0.0 0.0 0.00 0.00 0.00 18 1010.8
20260906093028 80 148 0.0 0.0 0.00 0.00 0.00 23 1010.8
20260906091515 81 148 0.0 0.0 0.00 0.00 0.00 26 1010.7
20260906090013 81 148 0.0 0.0 0.00 0.00 0.00 28 1010.7
20260906084514 81 148 0.0 0.0 0.00 0.00 0.00 33 1010.5
20260906083007 82 148 0.0 0.0 0.00 0.00 0.00 36 1010.6
20260906081506 82 148 0.0 0.0 0.00 0.00 0.00 38 1010.5
20260906080004 83 148 0.0 0.0 0.00 0.00 0.00 40 1010.6
20260906074504 83 148 0.0 0.9 0.00 0.00 0.00 42 1010.7
20260906073002 83 148 0.0 0.9 0.00 0.00 0.00 44 1010.7
20260906071601 84 148 0.0 0.0 0.00 0.00 0.00 44 1010.8
20260906070058 84 148 0.0 0.9 0.00 0.00 0.00 46 1010.9
20260906064556 84 156 0.0 0.0 0.00 0.00 0.00 47 1011.0
20260906063055 84 156 0.0 0.0 0.00 0.00 0.00 48 1011.0
20260906061552 84 156 0.0 0.9 0.00 0.00 0.00 49 1011.1
20260906060100 85 158 0.0 0.0 0.00 0.00 0.00 49 1011.1
20260906054551 85 155 0.0 0.9 0.00 0.00 0.00 50 1011.0
20260906053049 85 155 0.0 0.9 0.00 0.00 0.00 51 1010.9
20260906051554 85 154 0.0 0.0 0.00 0.00 0.00 54 1010.9
20260906050047 86 147 0.0 0.0 0.00 0.00 0.00 55 1010.9
20260906044542 86 148 0.0 0.0 0.00 0.00 0.00 56 1011.1
20260906043043 86 146 0.0 0.0 0.00 0.00 0.00 57 1010.9
20260906041546 86 146 0.0 0.0 0.00 0.00 0.00 57 1010.8
20260906040047 87 69 0.0 0.9 0.00 0.00 0.00 58 1010.8
20260906034540 87 153 0.0 0.9 0.00 0.00 0.00 58 1010.8
20260906033039 87 143 0.0 0.9 0.00 0.00 0.00 58 1010.8
20260906031538 88 49 0.0 0.9 0.00 0.00 0.00 58 1010.9
20260906030039 88 150 0.0 0.9 0.00 0.00 0.00 58 1010.8
20260906024538 88 145 0.0 0.9 0.00 0.00 0.00 58 1010.7
20260906023044 88 134 0.0 0.9 0.00 0.00 0.00 57 1010.5
20260906021537 89 141 0.0 0.9 0.00 0.00 0.00 57 1010.2
20260906020036 89 152 0.0 0.9 0.00 0.00 0.00 56 1010.1
20260906014539 90 95 0.0 0.9 0.00 0.00 0.00 55 1009.9
20260906013034 91 157 0.0 0.9 0.00 0.00 0.00 54 1009.5
20260906011534 92 155 0.0 1.7 0.00 0.00 0.00 53 1009.3
20260906010034 93 139 0.0 2.6 0.00 0.00 0.00 50 1009.2
20260906004534 95 152 0.0 0.9 0.00 0.00 0.00 43 1008.9
20260906003033 96 131 0.0 0.9 0.00 0.00 0.00 41 1008.8
20260906001529 96 143 0.0 0.9 0.00 0.00 0.00 40 1008.8
20260906000025 97 147 0.0 0.0 0.00 0.00 0.00 39 1008.6
20260905234522 99 146 0.0 0.0 0.00 0.00 0.00 38 1008.6
20260905233021 100 146 0.0 0.9 0.00 0.00 0.00 36 1008.5
20260905231517 101 21 0.0 0.9 0.00 0.00 0.00 35 1008.6
20260905230013 103 165 0.0 0.9 0.00 0.00 0.00 33 1008.4
20260905224516 103 120 0.0 0.0 0.00 0.00 0.00 34 1008.5
20260905223004 104 148 0.0 0.0 0.00 0.00 0.00 33 1008.5
20260905221600 103 141 0.0 0.9 0.00 0.00 0.00 34 1008.6
20260905220055 103 348 0.0 0.9 0.00 0.00 0.00 34 1008.6
20260905214554 102 136 0.0 0.9 0.00 0.00 0.00 36 1008.9
20260905213049 100 146 0.0 0.9 0.00 0.00 0.00 37 1009.1
20260905211542 100 23 0.0 0.0 0.00 0.00 0.00 37 1009.3
20260905210037 101 1 0.0 0.9 0.00 0.00 0.00 37 1009.4
20260905204533 101 105 0.0 0.9 0.00 0.00 0.00 37 1009.6
20260905203031 103 350 0.0 0.9 0.00 0.00 0.00 35 1009.7
20260905201527 103 130 0.0 1.7 0.00 0.00 0.00 35 1009.9
20260905200020 102 271 0.0 0.9 0.00 0.00 0.00 35 1010.1
20260905194516 101 65 0.0 0.9 0.00 0.00 0.00 36 1010.5
20260905193013 99 252 0.0 0.9 0.00 0.00 0.00 40 1010.7
20260905191508 99 176 0.0 0.9 0.00 0.00 0.00 38 1011.0
20260905190002 102 46 0.0 0.9 0.00 0.00 0.00 36 1011.2
20260905184619 101 133 0.0 1.7 0.00 0.00 0.00 38 1011.5
20260905183054 102 184 0.0 1.7 0.00 0.00 0.00 38 1011.6
20260905181550 102 232 0.0 1.7 0.00 0.00 0.00 38 1011.9
20260905180044 101 193 0.0 0.9 0.00 0.00 0.00 39 1012.3
20260905174546 99 61 0.0 0.9 0.00 0.00 0.00 41 1012.4
20260905173038 98 48 0.0 0.9 0.00 0.00 0.00 43 1012.5
20260905171531 98 330 0.0 1.7 0.00 0.00 0.00 43 1012.7
20260905170027 97 86 0.0 0.9 0.00 0.00 0.00 44 1012.8
20260905164523 97 140 0.0 0.9 0.00 0.00 0.00 47 1013.0
20260905163024 94 73 0.0 0.9 0.00 0.00 0.00 49 1013.1
20260905161513 94 233 0.0 0.9 0.00 0.00 0.00 50 1013.0
20260905160009 92 151 0.0 0.9 0.00 0.00 0.00 53 1013.0
20260905154505 91 249 0.0 0.9 0.00 0.00 0.00 55 1013.0
20260905153101 90 253 0.0 0.9 0.00 0.00 0.00 56 1013.1
20260905153001 90 252 0.0 0.9 0.00 0.00 0.00 56 1013.2
20260905151556 89 233 0.0 0.9 0.00 0.00 0.00 57 1013.0
20260905150052 87 239 0.0 0.9 0.00 0.00 0.00 57 1012.9
20260905144548 87 222 0.0 0.9 0.00 0.00 0.00 57 1013.0